Two Harbors, MN

6:46 AM CDT on March 23, 2017 (GMT -0500)
Helgeson

Weather History for KTWM - November, 2012

Change the Weather History Date:

Thursday, November 15, 2012

  Actual Average Record
Temperature  
Mean Temperature 32 °F -  
Max Temperature 44 °F 39 °F 62 °F (2001)
Min Temperature 21 °F 27 °F 5 °F (2014)
Degree Days  
Heating Degree Days 32    
Moisture  
Dew Point 18 °F    
Average Humidity 60    
Maximum Humidity 86    
Minimum Humidity 27    
Precipitation  
Precipitation 0.00 in - - ()
Sea Level Pressure  
Sea Level Pressure 30.19 in    
Wind  
Wind Speed 3 mph (WNW)    
Max Wind Speed 13 mph    
Max Gust Speed 21 mph    
Visibility 9 miles    
Events      
Averages and records for this station are not official NWS values.
T = Trace of Precipitation, MM = Missing Value Source: NWS Daily Summary

Daily Weather History Graph

Daily Weather History Graph

Search for Another Location

Airport or City:

Trip Planner

Search our weather history database for the weather conditions in past years. The results will help you decide how hot, cold, wet, or windy it might be!

Date:

Astronomy

Nov. 15, 2012 Rise Set
Actual Time 7:11 AM CST 4:31 PM CST
Civil Twilight 6:37 AM CST 5:04 PM CST
Nautical Twilight 6:00 AM CST 5:41 PM CST
Astronomical Twilight 5:24 AM CST 6:17 PM CST
Moon 9:12 AM CST (11/15) 6:18 PM CST (11/15)
Length of Visible Light 10h 26m
Length of Day
9h 20m
Waxing Crescent, 5% of the Moon is Illuminated
Nov 15
Waxing Crescent
Nov 20
First Quarter
Nov 28
Full
Dec 6
Last Quarter
Dec 13
New

Hourly Weather History & Observations

Time (CST) Temp. Windchill Dew Point Humidity Pressure Visibility Wind Dir Wind Speed Gust Speed Precip Events Conditions
12:12 AM 23.0 °F - 17.6 °F 80% 30.09 in 10.0 mi Calm Calm - N/A   Clear
12:31 AM 21.2 °F - 17.6 °F 86% 30.09 in 10.0 mi Calm Calm - N/A   Clear
12:51 AM 23.0 °F 18.4 °F 17.6 °F 80% 30.08 in 7.0 mi WNW 3.5 mph - N/A   Clear
1:12 AM 23.0 °F - 17.6 °F 80% 30.08 in 7.0 mi Calm Calm - N/A   Clear
1:31 AM 23.0 °F - 17.6 °F 80% 30.08 in 7.0 mi Calm Calm - N/A   Clear
1:51 AM 21.2 °F - 17.6 °F 86% 30.08 in 7.0 mi Calm Calm - N/A   Clear
2:12 AM 21.2 °F - 17.6 °F 86% 30.08 in 10.0 mi Calm Calm - N/A   Clear
2:31 AM 23.0 °F - 17.6 °F 80% 30.07 in 5.0 mi Calm Calm - N/A   Haze
2:51 AM 21.2 °F - 17.6 °F 86% 30.07 in 5.0 mi Calm Calm - N/A   Haze
3:12 AM 24.8 °F - 19.4 °F 80% 30.07 in 7.0 mi Calm Calm - N/A   Mostly Cloudy
3:31 AM 28.4 °F 23.3 °F 23.0 °F 80% 30.06 in 7.0 mi West 4.6 mph - N/A   Overcast
3:51 AM 24.8 °F 19.1 °F 19.4 °F 80% 30.06 in 7.0 mi West 4.6 mph - N/A   Mostly Cloudy
4:11 AM 28.4 °F 23.3 °F 23.0 °F 80% 30.06 in 10.0 mi WSW 4.6 mph - N/A   Overcast
4:31 AM 28.4 °F 24.6 °F 24.8 °F 86% 30.06 in 7.0 mi WSW 3.5 mph - N/A   Mostly Cloudy
4:51 AM 26.6 °F - 21.2 °F 80% 30.05 in 7.0 mi Calm Calm - N/A   Overcast
5:11 AM 26.6 °F 22.6 °F 21.2 °F 80% 30.06 in 7.0 mi WSW 3.5 mph - N/A   Mostly Cloudy
5:32 AM 26.6 °F 22.6 °F 21.2 °F 80% 30.05 in 7.0 mi West 3.5 mph - N/A   Mostly Cloudy
5:51 AM 28.4 °F 22.2 °F 23.0 °F 80% 30.05 in 7.0 mi West 5.8 mph - N/A   Overcast
6:11 AM 30.2 °F 24.3 °F 24.8 °F 80% 30.05 in 7.0 mi West 5.8 mph - N/A   Overcast
6:32 AM 33.8 °F 27.7 °F 28.4 °F 81% 30.06 in 10.0 mi WSW 6.9 mph - N/A   Overcast
6:51 AM 33.8 °F 27.7 °F 28.4 °F 81% 30.07 in 10.0 mi WSW 6.9 mph - N/A   Overcast
7:11 AM 33.8 °F 28.6 °F 28.4 °F 81% 30.07 in 10.0 mi WSW 5.8 mph - N/A   Overcast
7:32 AM 32.0 °F 27.5 °F 26.6 °F 80% 30.08 in 7.0 mi WSW 4.6 mph - N/A   Overcast
7:51 AM 33.8 °F 27.7 °F 28.4 °F 81% 30.08 in 10.0 mi WSW 6.9 mph - N/A   Overcast
8:11 AM 33.8 °F 30.8 °F 28.4 °F 81% 30.09 in 7.0 mi SW 3.5 mph - N/A   Overcast
8:32 AM 33.8 °F 28.6 °F 28.4 °F 81% 30.09 in 10.0 mi WSW 5.8 mph - N/A   Overcast
8:51 AM 37.4 °F 32.1 °F 30.2 °F 75% 30.09 in 10.0 mi WSW 6.9 mph - N/A   Scattered Clouds
9:11 AM 39.2 °F 33.0 °F 30.2 °F 70% 30.10 in 10.0 mi WSW 9.2 mph - N/A   Clear
9:31 AM 41.0 °F 35.8 °F 30.2 °F 65% 30.10 in 10.0 mi West 8.1 mph - N/A   Clear
9:51 AM 42.8 °F 37.5 °F 30.2 °F 61% 30.11 in 10.0 mi WNW 9.2 mph 16.1 mph N/A   Clear
10:12 AM 42.8 °F 38.0 °F 30.2 °F 61% 30.11 in 10.0 mi WNW 8.1 mph 19.6 mph N/A   Clear
10:31 AM 42.8 °F 38.0 °F 30.2 °F 61% 30.12 in 10.0 mi WNW 8.1 mph 19.6 mph N/A   Clear
10:51 AM 44.6 °F 39.2 °F 30.2 °F 57% 30.13 in 10.0 mi WNW 10.4 mph - N/A   Clear
11:12 AM 42.8 °F 38.0 °F 26.6 °F 53% 30.14 in 10.0 mi WNW 8.1 mph 20.7 mph N/A   Clear
11:31 AM 42.8 °F 37.5 °F 24.8 °F 49% 30.15 in 10.0 mi WNW 9.2 mph 18.4 mph N/A   Clear
11:51 AM 42.8 °F 38.0 °F 24.8 °F 49% 30.15 in 10.0 mi WNW 8.1 mph 20.7 mph N/A   Clear
12:12 PM 42.8 °F 37.0 °F 21.2 °F 42% 30.16 in 10.0 mi WNW 10.4 mph 17.3 mph N/A   Clear
12:31 PM 44.6 °F 41.4 °F 19.4 °F 37% 30.16 in 10.0 mi WNW 5.8 mph - N/A   Clear
12:51 PM 42.8 °F 38.6 °F 21.2 °F 42% 30.17 in 10.0 mi WNW 6.9 mph 17.3 mph N/A   Clear
1:12 PM 42.8 °F 36.2 °F 15.8 °F 34% 30.18 in 10.0 mi WNW 12.7 mph 18.4 mph N/A   Clear
1:31 PM 42.8 °F 37.0 °F 15.8 °F 34% 30.19 in 10.0 mi WNW 10.4 mph 17.3 mph N/A   Clear
1:51 PM 42.8 °F 41.1 °F 15.8 °F 34% 30.19 in 10.0 mi WNW 3.5 mph - N/A   Clear
2:12 PM 42.8 °F 38.0 °F 10.4 °F 27% 30.21 in 10.0 mi WNW 8.1 mph 18.4 mph N/A   Clear
2:31 PM 41.0 °F 34.7 °F 12.2 °F 31% 30.21 in 10.0 mi NW 10.4 mph 18.4 mph N/A   Clear
2:51 PM 41.0 °F 35.8 °F 12.2 °F 31% 30.22 in 10.0 mi WNW 8.1 mph 19.6 mph N/A   Clear
3:12 PM 39.2 °F 32.0 °F 8.6 °F 28% 30.24 in 10.0 mi WNW 11.5 mph 17.3 mph N/A   Clear
3:31 PM 39.2 °F 33.0 °F 8.6 °F 28% 30.25 in 10.0 mi WNW 9.2 mph 17.3 mph N/A   Clear
3:51 PM 37.4 °F 34.9 °F 10.4 °F 33% 30.27 in 10.0 mi WNW 3.5 mph - N/A   Clear
4:11 PM 37.4 °F 32.1 °F 10.4 °F 33% 30.28 in 10.0 mi West 6.9 mph - N/A   Clear
4:31 PM 35.6 °F 29.2 °F 6.8 °F 30% 30.28 in 10.0 mi NW 8.1 mph - N/A   Clear
4:52 PM 33.8 °F 29.6 °F 6.8 °F 32% 30.30 in 10.0 mi NW 4.6 mph - N/A   Clear
5:11 PM 32.0 °F - 6.8 °F 35% 30.31 in 10.0 mi Calm Calm - N/A   Clear
5:52 PM 30.2 °F - 8.6 °F 40% 30.33 in 10.0 mi Calm Calm - N/A   Clear
6:11 PM 30.2 °F - 8.6 °F 40% 30.34 in 10.0 mi Calm Calm - N/A   Clear
6:31 PM 28.4 °F 24.6 °F 8.6 °F 43% 30.34 in 10.0 mi NW 3.5 mph - N/A   Clear
6:52 PM 28.4 °F 23.3 °F 10.4 °F 47% 30.35 in 10.0 mi NW 4.6 mph - N/A   Clear
7:32 PM 28.4 °F - 10.4 °F 47% 30.36 in 10.0 mi Calm Calm - N/A   Clear
7:51 PM 28.4 °F - 10.4 °F 47% 30.37 in 10.0 mi Calm Calm - N/A   Clear
8:11 PM 26.6 °F - 10.4 °F 51% 30.37 in 10.0 mi Calm Calm - N/A   Clear
8:32 PM 26.6 °F - 10.4 °F 51% 30.38 in 10.0 mi Calm Calm - N/A   Clear
8:51 PM 26.6 °F 22.6 °F 12.2 °F 55% 30.39 in 10.0 mi North 3.5 mph - N/A   Clear
9:11 PM 26.6 °F 22.6 °F 12.2 °F 55% 30.39 in 10.0 mi NNW 3.5 mph - N/A   Clear
9:31 PM 24.8 °F - 12.2 °F 59% 30.40 in 10.0 mi Calm Calm - N/A   Clear
9:51 PM 24.8 °F 20.5 °F 12.2 °F 59% 30.40 in 10.0 mi NNW 3.5 mph - N/A   Clear
10:12 PM 24.8 °F 20.5 °F 12.2 °F 59% 30.41 in 10.0 mi NW 3.5 mph - N/A   Clear
10:31 PM 24.8 °F - 10.4 °F 54% 30.41 in 10.0 mi Calm Calm - N/A   Clear
10:51 PM 24.8 °F 20.5 °F 12.2 °F 59% 30.42 in 10.0 mi NW 3.5 mph - N/A   Clear
11:12 PM 23.0 °F - 12.2 °F 63% 30.43 in 10.0 mi Calm Calm - N/A   Clear
11:31 PM 23.0 °F - 12.2 °F 63% 30.43 in 10.0 mi Calm Calm - N/A   Clear
11:51 PM 23.0 °F 17.0 °F 12.2 °F 63% 30.44 in 10.0 mi NNW 4.6 mph - N/A   Clear